Vorticity
9 10 8 3 3 1 -1 5 8 10 6 4 5 5 4 6 8 11 11 5 4 8 17 12 7 6 6 5 7 9 10 11 10 10 8 11 3 10 11 12 15 11 8 5
4 4 1 2 4 2 4 5 10 7 8 6 5 5 10 9 2 4 3 5 9 6 5 6 7 10 9 9 8 4 7 7 8 3 14 -0 -0 7 2 1 3 4 10 12
9 15 10 11 15 14 14 15 11 9 7 6 5 2 4 8 10 3 7 17 24 22 20 16 13 8 8 5 4 4 8 10 11 12 10 10 9 11 9 8 7 13 13 7
11 18 12 11 9 9 8 10 9 6 7 5 9 13 7 4 6 9 5 7 10 13 12 11 14 16 15 11 10 12 11 13 10 12 19 14 13 19 12 8 6 1 4 4
5 8 7 7 9 9 7 9 8 9 7 5 7 9 1 6 10 13 6 13 7 -2 1 12 7 23 16 16 16 10 5 15 18 7 -5 7 10 5 10 8 -9 -4 2 9
1 5 7 6 7 6 6 6 5 4 5 3 4 8 2 7 4 6 5 3 7 11 13 13 24 9 11 7 10 12 7 9 11 -3 -3 -5 -0 4 8 0 1 1 3 6
9 10 4 4 7 5 3 8 8 7 5 6 5 14 6 7 7 5 7 7 5 4 8 18 9 -3 10 13 4 12 5 -1 23 0 -5 -21 -12 11 10 6 7 4 6 5
9 7 2 -1 2 9 11 11 11 13 10 13 9 4 9 11 14 9 6 4 4 9 7 9 1 2 7 3 -0 -3 14 11 10 7 -26 -7 -9 16 11 6 4 5 5 7
14 8 7 5 4 5 9 9 10 11 9 9 9 11 5 6 5 6 3 7 11 10 10 6 1 1 7 13 10 9 14 7 9 4 -28 -6 10 20 7 8 12 10 8 7
-1 6 14 15 19 18 10 8 7 6 7 9 6 10 9 9 6 7 14 7 5 10 10 8 10 7 6 10 7 1 12 21 19 17 14 19 11 13 -12 16 13 9 10 13
20 12 8 11 13 11 10 6 7 8 1 8 6 8 20 16 17 11 6 13 17 12 3 7 14 19 9 5 6 1 0 9 18 5 17 3 8 4 -9 0 4 7 10 6
9 5 -6 4 6 3 4 5 5 5 9 10 23 16 7 10 9 35 24 19 13 4 3 0 -1 2 -4 -4 -1 19 16 4 25 19 -21 9 4 6 3 4 -2 3 13 20
5 -1 1 1 3 14 2 6 12 12 10 7 3 -7 14 11 8 3 -13 -8 -5 -2 2 14 22 37 28 24 28 29 21 16 22 22 21 16 4 9 14 5 4 5 7 -5
6 4 6 -1 6 11 2 1 8 11 5 9 -3 10 7 10 6 7 7 7 8 9 14 7 -6 -8 -20 -15 -9 2 -29 -1 -4 -5 -4 1 -10 -12 -2 2 4 4 1 -1
6 2 7 3 8 8 7 1 8 6 6 5 9 8 6 7 6 5 5 6 8 8 6 5 6 6 -0 1 10 5 7 1 4 3 1 1 -2 4 15 18 9 4 9 5
5 4 3 2 7 7 5 3 11 8 6 3 6 2 11 7 10 10 11 12 16 16 18 17 15 15 13 10 7 7 5 4 10 11 9 12 11 11 7 9 12 13 12 16
8 8 9 5 4 4 4 10 7 4 2 6 6 6 8 7 9 15 20 20 17 20 25 28 28 26 28 31 33 35 34 32 18 10 14 18 20 17 14 8 4 6 7 6
6 5 4 9 6 6 10 5 9 7 3 8 8 13 15 15 18 19 22 18 18 22 22 18 17 18 18 18 19 21 23 24 27 30 29 26 24 21 21 23 23 23 22 17
7 4 9 7 9 6 4 9 3 5 6 5 17 20 14 15 19 18 20 18 19 17 16 17 16 18 18 17 16 14 14 14 15 15 16 17 18 18 17 17 17 17 19 21
2 1 4 4 8 4 7 8 10 14 8 32 13 16 22 15 13 25 17 17 14 14 13 12 12 11 10 11 12 13 13 13 13 12 12 12 11 11 12 13 14 15 16 17
8 11 7 8 12 11 8 9 15 16 31 13 22 17 19 14 12 13 12 12 8 6 8 9 9 10 10 9 9 9 9 10 10 11 10 10 10 11 11 12 12 12 12 14
7 8 10 13 5 5 14 23 25 20 17 18 17 13 12 14 14 14 9 8 7 8 8 9 9 9 9 9 9 10 10 10 10 10 11 12 15 19 21 23 22 22 23 22
11 9 10 7 15 19 32 27 17 13 13 12 10 13 13 11 11 10 9 7 8 7 9 11 10 9 11 10 11 11 12 15 17 18 19 19 19 25 34 33 29 29 30 33
10 8 7 24 20 16 21 8 10 16 14 14 13 14 12 10 10 9 9 9 10 12 10 10 10 10 13 13 13 14 14 13 13 18 21 21 31 22 22 33 32 29 34 37
7 17 28 24 19 18 10 8 13 10 9 12 14 12 12 11 9 9 8 8 7 7 12 12 14 14 13 11 8 11 17 18 23 21 19 22 31 23 9 5 20 23 21 17
29 17 18 19 15 -0 6 6 9 12 13 10 13 14 11 10 10 9 8 8 7 16 15 16 12 9 5 8 9 23 22 29 17 17 24 23 18 -1 7 13 8 -1 36 42
Height
5796 5797 5796 5795 5795 5792 5790 5788 5784 5785 5786 5783 5784 5786 5783 5784 5783 5786 5787 5784 5783 5783 5784 5780 5778 5777 5776 5775 5776 5776 5775 5773 5773 5772 5772 5772 5771 5772 5771 5772 5773 5774 5775 5776
5788 5787 5787 5783 5784 5782 5781 5777 5778 5775 5774 5773 5773 5771 5775 5775 5775 5773 5771 5774 5776 5776 5773 5772 5770 5768 5766 5765 5765 5765 5766 5766 5765 5763 5763 5762 5762 5762 5762 5761 5761 5761 5763 5765
5776 5777 5774 5773 5773 5773 5771 5769 5768 5765 5762 5763 5758 5758 5760 5765 5767 5760 5761 5763 5763 5764 5763 5762 5761 5759 5758 5756 5755 5754 5754 5755 5754 5753 5753 5753 5753 5752 5751 5752 5752 5751 5751 5752
5764 5767 5765 5763 5760 5759 5760 5761 5760 5757 5756 5754 5748 5743 5747 5750 5745 5743 5744 5743 5746 5748 5749 5749 5749 5748 5748 5746 5743 5743 5742 5742 5742 5742 5742 5741 5740 5741 5741 5741 5740 5739 5740 5739
5756 5756 5754 5755 5755 5752 5749 5749 5750 5749 5747 5743 5744 5743 5737 5734 5730 5731 5733 5732 5734 5735 5734 5734 5734 5733 5733 5733 5733 5731 5729 5728 5728 5728 5729 5729 5730 5731 5730 5729 5729 5729 5728 5726
5744 5746 5746 5746 5745 5743 5742 5741 5740 5737 5735 5735 5735 5731 5731 5729 5727 5725 5722 5722 5721 5719 5720 5721 5722 5723 5723 5722 5722 5721 5720 5719 5715 5713 5712 5713 5715 5716 5716 5716 5715 5715 5715 5715
5733 5735 5734 5732 5733 5733 5732 5729 5726 5726 5726 5726 5721 5721 5725 5721 5715 5714 5715 5711 5710 5709 5708 5707 5708 5708 5708 5708 5708 5709 5707 5704 5704 5701 5697 5696 5695 5700 5700 5699 5699 5699 5699 5699
5723 5724 5723 5721 5722 5721 5719 5717 5717 5710 5712 5711 5717 5714 5719 5714 5707 5701 5700 5700 5700 5696 5695 5695 5694 5693 5693 5692 5691 5690 5689 5688 5686 5684 5680 5678 5677 5681 5679 5679 5679 5680 5681 5681
5709 5709 5710 5711 5709 5709 5706 5704 5703 5695 5699 5694 5703 5700 5704 5703 5694 5691 5689 5687 5683 5680 5678 5678 5677 5675 5674 5673 5673 5671 5670 5671 5670 5668 5663 5661 5663 5662 5660 5659 5659 5658 5658 5659
5694 5696 5698 5695 5694 5693 5692 5692 5688 5684 5679 5676 5679 5684 5688 5683 5677 5676 5674 5670 5666 5663 5662 5660 5658 5658 5655 5652 5651 5650 5650 5649 5647 5646 5645 5642 5640 5639 5640 5640 5638 5637 5636 5636
5681 5681 5684 5684 5686 5682 5679 5679 5677 5673 5669 5661 5661 5667 5673 5666 5663 5657 5652 5650 5648 5646 5644 5641 5639 5637 5635 5633 5631 5628 5626 5625 5625 5623 5621 5619 5619 5617 5617 5617 5616 5616 5616 5615
5663 5660 5665 5670 5671 5665 5661 5662 5662 5655 5655 5650 5644 5642 5653 5651 5648 5640 5636 5633 5630 5630 5627 5624 5621 5620 5616 5613 5611 5609 5606 5603 5601 5600 5598 5598 5596 5594 5595 5594 5593 5594 5594 5594
5651 5646 5648 5655 5660 5649 5646 5649 5650 5642 5635 5632 5631 5631 5635 5634 5632 5625 5623 5621 5615 5613 5608 5603 5599 5597 5596 5593 5590 5588 5583 5581 5577 5575 5573 5572 5572 5570 5568 5568 5567 5568 5569 5570
5635 5634 5633 5635 5641 5634 5629 5631 5633 5623 5614 5617 5614 5612 5620 5616 5609 5606 5606 5604 5597 5596 5594 5588 5583 5580 5576 5574 5570 5566 5559 5555 5552 5549 5548 5546 5544 5543 5543 5542 5541 5540 5541 5543
5620 5622 5618 5620 5618 5618 5614 5615 5619 5609 5606 5596 5598 5595 5599 5597 5589 5585 5584 5581 5577 5573 5569 5563 5561 5557 5549 5545 5539 5536 5531 5526 5525 5522 5520 5516 5515 5516 5516 5516 5516 5513 5513 5512
5605 5604 5603 5604 5599 5595 5594 5604 5598 5593 5590 5580 5577 5571 5579 5570 5566 5562 5558 5556 5553 5547 5543 5534 5530 5526 5521 5519 5515 5511 5506 5500 5496 5493 5491 5488 5487 5486 5485 5484 5484 5485 5484 5484
5592 5587 5583 5582 5583 5576 5575 5589 5578 5574 5573 5567 5554 5555 5552 5547 5543 5537 5531 5527 5523 5519 5515 5509 5501 5496 5492 5488 5483 5479 5477 5473 5469 5466 5464 5461 5457 5455 5452 5450 5451 5452 5452 5452
5577 5571 5565 5562 5562 5554 5567 5565 5557 5551 5551 5547 5536 5529 5524 5520 5518 5513 5506 5502 5499 5497 5493 5488 5482 5477 5470 5464 5460 5456 5452 5447 5444 5441 5437 5434 5430 5426 5423 5420 5417 5414 5412 5414
5562 5557 5548 5544 5542 5537 5548 5546 5537 5528 5530 5527 5518 5510 5502 5498 5496 5497 5488 5482 5480 5478 5474 5470 5465 5461 5453 5445 5442 5438 5432 5426 5420 5416 5413 5409 5403 5398 5395 5391 5388 5385 5378 5377
5547 5544 5533 5531 5519 5515 5525 5523 5512 5502 5496 5503 5493 5486 5482 5477 5473 5480 5471 5468 5463 5459 5456 5453 5450 5444 5436 5430 5425 5420 5414 5408 5401 5396 5391 5385 5378 5372 5366 5360 5357 5353 5348 5346
5530 5522 5519 5515 5501 5497 5501 5501 5492 5481 5483 5477 5473 5470 5465 5462 5459 5460 5457 5454 5449 5445 5442 5439 5433 5426 5420 5414 5408 5402 5396 5389 5382 5376 5369 5362 5354 5347 5340 5335 5329 5322 5316 5312
5506 5507 5507 5495 5486 5477 5482 5478 5471 5465 5458 5457 5454 5454 5448 5446 5445 5442 5440 5437 5432 5429 5425 5421 5415 5409 5401 5395 5390 5384 5377 5369 5362 5354 5345 5337 5329 5321 5313 5307 5300 5293 5284 5279
5486 5495 5485 5480 5465 5462 5461 5455 5450 5447 5444 5442 5438 5438 5433 5430 5429 5426 5423 5421 5417 5413 5408 5403 5397 5392 5384 5377 5370 5365 5357 5348 5340 5331 5321 5312 5304 5296 5288 5280 5273 5266 5258 5252
5474 5479 5463 5454 5457 5451 5446 5442 5438 5433 5429 5428 5426 5423 5420 5417 5414 5411 5408 5405 5400 5396 5390 5385 5380 5375 5368 5361 5354 5345 5336 5328 5319 5311 5301 5292 5284 5277 5269 5261 5253 5245 5237 5230
5459 5455 5450 5436 5433 5430 5431 5429 5424 5420 5417 5415 5413 5409 5407 5403 5399 5395 5391 5388 5384 5379 5374 5369 5363 5358 5352 5345 5338 5328 5319 5310 5302 5293 5284 5277 5269 5261 5255 5247 5237 5229 5220 5212
5442 5435 5426 5417 5420 5416 5413 5412 5409 5403 5402 5401 5399 5396 5394 5390 5386 5381 5376 5372 5368 5362 5357 5352 5347 5343 5337 5331 5323 5313 5305 5296 5288 5281 5271 5264 5257 5250 5243 5236 5228 5215 5202 5192